#timestamp,LO_Frequency,Hit,StdDev 
1531890015.8,286047002.0,Y
1531890035.7,286047002.6,P
1531890055.5,286047002.2,N
1531890075.4,286047002.7,N
1531890095.2,286046999.8,N
1531890115.0,286047000.1,N
1531890115.9,286047000.1,N
1531890135.8,286047000.8,N
1531890155.6,286047000.6,N
1531890175.6,286047000.8,N
1531890195.5,286047000.7,N
1531890215.3,286047000.9,N
1531890235.2,286046998.2,N
1531890255.9,286046998.5,N
1531890275.7,286046998.1,N
1531890295.6,286047000.7,N
1531890315.4,286046998.5,N
1531890335.2,286046998.1,N
1531890355.1,286046998.7,N
1531890356.0,286046998.7,N
1531890375.8,286047001.2,N
1531890395.7,286047001.0,N
1531890415.5,286047001.2,N
1531890435.3,286047001.0,N
1531890455.2,286047000.5,N
1531890475.0,286047000.5,N
1531890475.9,286047000.5,N
1531890495.7,286047000.9,N
1531890515.6,286047000.8,N
1531890535.4,286046998.1,N
1531890555.3,286046998.7,N
1531890575.1,286047000.9,N
1531890576.0,286047000.9,N
1531890595.8,286047001.2,N
1531890615.7,286047001.0,N
1531890635.5,286046998.7,N
1531890655.3,286046999.2,N
1531890675.2,286046998.4,N
1531890695.0,286047001.1,N
1531890695.9,286047001.1,N
1531890715.8,286046999.6,N
1531890735.6,286046999.3,N
1531890755.4,286046996.8,N
1531890775.3,286046996.5,N
1531890795.1,286047001.1,N
1531890815.9,286047000.2,N
1531890835.7,286046998.1,N
1531890855.5,286047000.6,N
1531890875.4,286047002.0,N
1531890895.2,286047000.5,N
1531890915.0,286047001.1,N
1531890915.9,286047001.1,N
1531890935.8,286047001.2,N
1531890955.6,286047000.6,N
1531890975.5,286047000.7,N
1531890995.3,286047000.9,N
1531891015.1,286047002.7,N
1531891035.9,286046999.8,N
1531891055.7,286047002.8,N
1531891075.5,286047002.1,N
1531891095.4,286047000.1,N
1531891115.2,286047002.8,N
1531891135.1,286047002.3,N
1531891155.2,286047002.6,N
1531891175.0,286047002.1,N
1531891175.9,286047002.1,N
1531891195.8,286047000.9,N
1531891215.6,286046998.5,N
1531891235.4,286046998.7,N
1531891255.3,286047000.7,N
1531891275.1,286046999.8,N
1531891295.9,286047000.3,N
1531891315.7,286047000.1,N
1531891335.5,286047000.1,N
1531891355.4,286047000.3,N
1531891375.2,286046999.9,N
1531891395.0,286046999.8,N
1531891395.9,286046999.8,N
1531891415.8,286047001.5,N
1531891435.6,286047001.3,N
1531891455.5,286047000.5,N
1531891475.3,286047000.7,N
1531891495.1,286047000.4,N
1531891515.9,286046999.9,N
1531891535.7,286047003.5,N
1531891555.5,286047001.3,N
1531891575.4,286047004.4,Y
1531891595.2,286047001.4,P
1531891615.1,286047003.5,P
1531891616.0,286047003.5,P
1531891635.8,286047003.5,N
1531891655.6,286047004.0,Y
1531891705.5,286046998.3,E
1531891715.4,286046998.2,N
1531891735.3,286047000.2,P
1531891755.1,286047000.8,N
1531891775.8,286047000.8,N
1531891795.7,286047001.2,N
1531891815.5,286046996.9,N
1531891835.4,286046998.8,N
1531891855.2,286047000.4,N
1531891875.0,286047000.8,N
1531891875.9,286047000.8,N
1531891895.8,286046999.9,N
1531891915.6,286047001.0,N
1531891935.4,286047000.1,N
1531891955.3,286046999.8,N
1531891975.1,286047000.4,N
1531891995.9,286046999.9,N
1531892015.7,286047001.0,N
1531892035.5,286046998.2,N
1531892055.4,286047000.0,N
1531892075.2,286046999.7,N
1531892095.0,286047001.9,N
1531892095.9,286047001.9,N
1531892115.8,286047001.5,N
1531892135.6,286047002.7,N
1531892155.5,286047002.3,N
1531892175.3,286047000.0,N
1531892195.1,286047000.9,N
1531892215.9,286046998.4,N
1531892235.7,286046999.3,N
1531892255.5,286046998.1,N
1531892275.4,286047000.8,N
1531892295.2,286047000.6,N
1531892315.1,286046999.7,N
1531892316.0,286046999.7,N
1531892335.8,286047001.6,N
1531892355.6,286047000.2,N
1531892375.5,286047002.5,N
1531892395.3,286047003.6,Y
1531892415.2,286047002.5,P
1531892435.9,286046998.8,N
1531892455.7,286046999.1,N
1531892475.6,286046999.1,N
1531892495.4,286046997.8,N
1531892515.2,286046999.4,N
1531892535.1,286047000.5,N
1531892536.0,286047000.5,N
1531892555.8,286047000.9,N
1531892575.7,286047000.2,N
1531892595.5,286047004.2,Y
1531892615.3,286047004.2,P
1531892635.2,286047002.6,N
1531892655.0,286047000.2,N
1531892655.9,286047000.2,N
1531892675.7,286047000.0,N
1531892695.6,286047000.0,N
1531892715.4,286046998.4,N
1531892735.3,286046998.5,N
1531892755.1,286046998.7,N
1531892756.0,286046998.7,N
1531892775.8,286046999.5,N
1531892795.7,286046999.6,N
1531892815.5,286046997.3,N
1531892835.4,286046997.4,N
1531892855.2,286046999.6,N
1531892875.0,286046997.2,N
1531892875.9,286046997.2,N
1531892895.8,286046995.0,N
1531892915.6,286046997.9,N
1531892935.4,286046997.0,N
1531892955.3,286046997.2,N
1531892975.1,286046998.4,N
1531892995.9,286046999.9,N
1531893015.7,286046999.8,N
1531893035.5,286046998.1,N
1531893055.4,286046998.9,N
1531893075.2,286046998.4,N
1531893095.0,286046997.4,N
1531893095.9,286046997.4,N
1531893115.8,286046996.7,N
1531893135.6,286046997.1,N
1531893155.5,286046996.8,N
1531893175.3,286046999.2,N
1531893195.1,286046997.2,N
1531893215.3,286046996.5,N
1531893235.2,286046998.9,N
1531893255.9,286046999.3,N
1531893275.7,286046999.5,N
1531893295.6,286046999.2,N
1531893315.4,286046999.0,N
1531893335.2,286046999.2,N
1531893355.1,286046999.1,N
1531893356.0,286046999.1,N
1531893375.8,286046997.0,N
1531893395.7,286046998.7,N
1531893415.5,286046999.1,N
1531893435.3,286047000.6,N
1531893455.2,286046998.3,N
1531893475.9,286047000.8,N
1531893495.7,286046998.1,N
1531893515.6,286046999.4,N
1531893535.4,286046999.5,N
1531893555.3,286046997.4,N
1531893575.1,286046997.2,N
1531893576.0,286046997.2,N
1531893595.8,286046995.3,Y
